Home > Weather > Bad Nauheim > Past weeks

Flag for Germany Weather for the Past 2 Weeks in Bad Nauheim, Hesse, Germany

Now
52 °F

Passing clouds.


Feels Like: 51 °F
Forecast: 42 / 56 °F
Wind: 5 mph from Northwest

Location: Frankfurt-M-Flughafen Airport

Current Time: May 2, 2016 at 11:29:31 PM

Latest Report: May 2, 2016 at 10:50 PM


Visibility: N/A

Pressure: 30.09 "Hg

Humidity: 62%

Dew Point: 39 °F

Location of Bad NauheimLocation

Historic Weather in Bad Nauheim — Graph

°F

Bad Nauheim Temperature Yesterday

Maximum temperature yesterday: 66 °F (at 5:20 PM)
Minimum temperature yesterday: 46 °F (at 12:20 AM)
Average temperature yesterday: 55 °F

High & Low Weather Summary for the Past Weeks

 TemperatureHumidityPressure
High70 °F (Apr 21, 4:50 PM)100% (Apr 19, 4:50 AM)30.45 "Hg (Apr 19, 4:50 AM)
Low30 °F (Apr 24, 4:50 AM)22% (Apr 20, 5:50 PM)29.56 "Hg (Apr 26, 12:20 AM)
Average48 °F62%30.02 "Hg
* Reported Apr 17 10:20 PM — May 2 10:20 PM, Bad Nauheim, Weather by CustomWeather, © 2016

Note: Actual official high and low records may vary slightly from our data, if they occured in-between our weather recording intervals... More about our weather records

Advertising

Bad Nauheim Weather History for the Previous 24 Hours

Scroll right to see more
 ConditionsComfort  
Time TempWeatherWind HumidityBarometerVisibility
10:20 PM
Mon, May 2
52 °FClear.2 mph62%30.09 "Hg10 mi
9:50 PM54 °FPassing clouds.3 mph54%30.09 "HgN/A
9:20 PM55 °FSunny.1 mph51%30.09 "Hg10 mi
8:50 PM59 °FSunny.2 mph42%30.09 "Hg10 mi
8:20 PM63 °FSunny.3 mph37%30.09 "Hg10 mi
7:50 PM68 °FSunny.3 mph28%30.09 "Hg10 mi
7:20 PM68 °FPassing clouds.5 mph30%30.09 "HgN/A
6:50 PM68 °FPassing clouds.6 mph28%30.09 "HgN/A
6:20 PM70 °FPassing clouds.5 mph27%30.09 "HgN/A
5:50 PM68 °FPassing clouds.8 mph28%30.09 "HgN/A
5:20 PM68 °FSunny.7 mph28%30.12 "Hg10 mi
4:50 PM68 °FPassing clouds.8 mph30%30.12 "HgN/A
4:20 PM68 °FPassing clouds.9 mph28%30.12 "HgN/A
3:50 PM68 °FPassing clouds.8 mph30%30.15 "HgN/A
3:20 PM68 °FPassing clouds.9 mph33%30.15 "HgN/A
2:50 PM66 °FPassing clouds.9 mph32%30.15 "HgN/A
2:20 PM66 °FPassing clouds.9 mph32%30.18 "HgN/A
1:50 PM66 °FSunny.5 mph35%30.18 "Hg10 mi
1:20 PM66 °FPassing clouds.9 mph32%30.18 "HgN/A
12:50 PM64 °FSunny.9 mph34%30.21 "Hg10 mi
12:20 PM64 °FSunny.6 mph37%30.21 "Hg10 mi
11:50 AM63 °FPassing clouds.7 mph39%30.21 "HgN/A
11:20 AM63 °FPassing clouds.8 mph42%30.24 "HgN/A
10:50 AM61 °FPassing clouds.7 mph48%30.24 "HgN/A
10:20 AM59 °FPassing clouds.5 mph51%30.24 "HgN/A
9:50 AM57 °FPassing clouds.5 mph55%30.24 "HgN/A
9:20 AM55 °FPassing clouds.7 mph63%30.24 "HgN/A
8:20 AM54 °FSunny.12 mph63%30.24 "Hg10 mi
7:20 AM50 °FSunny.12 mph76%30.24 "Hg10 mi
6:50 AM48 °FClear.10 mph76%30.24 "Hg10 mi
6:20 AM46 °FClear.9 mph82%30.24 "Hg10 mi
5:50 AM46 °FClear.10 mph82%30.24 "Hg10 mi
5:20 AM48 °FClear.9 mph76%30.24 "Hg10 mi
4:50 AM50 °FClear.12 mph76%30.24 "Hg10 mi
4:20 AM50 °FClear.12 mph76%30.24 "Hg10 mi
3:50 AM50 °FClear.12 mph76%30.24 "Hg10 mi
3:20 AM52 °FClear.12 mph67%30.24 "Hg10 mi
2:50 AM52 °FClear.9 mph67%30.24 "Hg10 mi
2:20 AM54 °FClear.10 mph63%30.24 "Hg10 mi
1:50 AM54 °FClear.12 mph63%30.24 "Hg10 mi
1:20 AM50 °FClear.12 mph67%30.24 "Hg10 mi
12:50 AM54 °FClear.10 mph58%30.24 "Hg10 mi
12:20 AM55 °FClear.9 mph55%30.24 "Hg10 mi
11:50 PM
Sun, May 1
55 °FClear.12 mph55%30.24 "Hg10 mi
11:20 PM55 °FClear.12 mph55%30.24 "Hg10 mi
Weather by CustomWeather, © 2016

See weather overviewHow to use our weather pages